[[{"header":{"parameterUnit":"m.s-1","parameterCategory":1,"la1":30.2991,"la2":30.254,"lo1":-89.0895,"lo2":-89.0444,"dy":0.0017,"dx":0.0017,"nx":28,"ny":28,"refTime":"2025-07-30T21:00:00:Z","depth":0,"parameterNumber":2,"parameterNumberName":"U-component_of_WINDS"},"data":[0,0,0,0,0,0,0,0,0,0,0,0,0,0,0,0,0,0,0,0,0,0,0,0,0,0,0,0,0,0,0,0,0,0,0,0,0,0,0,0,0,0,0,0,0,0,0,0,0,0,0,0,0,0,0,0,0,0,-0.152,-0.1519,0,-0.1444,-0.1443,-0.1442,-0.142,-0.1421,-0.1421,-0.1421,-0.134,-0.1338,-0.1335,0,0,0,0,0,0,0,0,0,0,0,0,0,-0.1643,-0.1641,-0.152,-0.1519,-0.1518,-0.1444,-0.1443,-0.1442,-0.142,-0.1421,-0.1421,-0.1422,-0.1341,-0.1338,-0.1335,0,0,0,0,0,0,0,0,0,0,0,0,0,-0.1581,-0.164,-0.152,-0.1498,-0.1496,-0.1444,-0.1443,-0.1442,-0.142,-0.1421,-0.1421,-0.1422,-0.1342,-0.1338,-0.1335,-0.1299,0,0,-0.1323,-0.1321,0,0,0,0,0,0,0,0,-0.1584,-0.1576,-0.1503,-0.15,-0.1497,-0.1442,-0.1457,-0.1394,-0.142,-0.1449,-0.1421,-0.1422,-0.1373,-0.1367,-0.1351,-0.1295,-0.1291,-0.1323,-0.132,-0.1319,-0.1317,0,0,0,0,0,0,0,-0.1589,-0.1579,-0.149,-0.1502,-0.1498,-0.1491,-0.1483,-0.1445,-0.1408,-0.1446,-0.1444,-0.1436,-0.1372,-0.1355,-0.1349,-0.129,-0.1323,-0.1319,-0.1317,-0.1315,-0.1199,-0.1198,0,0,0,0,0,0,-0.1597,-0.1583,-0.1492,-0.1488,-0.1543,-0.1489,-0.148,-0.1459,-0.1409,-0.1402,-0.1435,-0.1435,-0.1361,-0.1354,-0.1346,-0.13,-0.1319,-0.1315,-0.1313,-0.12,-0.1199,-0.1198,0,0,0,0,0,0,-0.16,-0.1589,-0.1495,-0.1535,-0.1522,-0.1486,-0.1463,-0.1457,-0.144,-0.1401,-0.1394,-0.1425,-0.1361,-0.1352,-0.1311,-0.1297,-0.1313,-0.131,-0.1201,-0.1199,-0.1198,-0.1207,0,0,0,0,0,0,-0.1604,-0.159,-0.1577,-0.1535,-0.1521,-0.1462,-0.1462,-0.1455,-0.1434,-0.1433,-0.1389,-0.1382,-0.1361,-0.1316,-0.1307,-0.1292,-0.1307,-0.1202,-0.12,-0.1199,-0.1208,-0.1207,-0.1205,0,0,0,0,0,-0.1608,-0.1582,-0.1577,-0.1566,-0.1503,-0.1461,-0.1453,-0.143,-0.1433,-0.1419,-0.1393,-0.1384,-0.13,-0.1312,-0.1301,-0.1285,-0.1202,-0.12,-0.1199,-0.1209,-0.1207,-0.1205,0,0,0,0,0,0,-0.1623,-0.1576,-0.1569,-0.1529,-0.15,-0.1458,-0.1439,-0.1429,-0.1397,-0.1397,-0.1369,-0.1359,-0.132,-0.1298,-0.1313,-0.1247,-0.1251,-0.1247,-0.1262,-0.126,-0.1259,-0.1264,-0.1304,0,0,0,0,0,-0.1622,-0.1592,-0.1553,-0.1521,-0.1507,-0.1476,-0.1456,-0.1441,-0.1409,-0.1396,-0.1367,-0.1335,-0.1302,-0.128,-0.1247,-0.1205,-0.1195,-0.1189,-0.1187,-0.1186,-0.1183,-0.1158,-0.1154,-0.1192,-0.1192,-0.1192,0,0,-0.1618,-0.1589,-0.1572,-0.1523,-0.1499,-0.1468,-0.1465,-0.1433,-0.1409,-0.1391,-0.135,-0.1328,-0.129,-0.1249,-0.1229,-0.1229,-0.117,-0.1184,-0.1184,-0.118,-0.1156,-0.1152,-0.1149,-0.1191,-0.1191,-0.1191,0,0,-0.1596,-0.1572,-0.1542,-0.1518,-0.1481,-0.146,-0.1453,-0.1413,-0.1398,-0.1357,-0.1342,-0.1313,-0.1256,-0.123,-0.1209,-0.1177,-0.1166,-0.1167,-0.1159,-0.1135,-0.1133,-0.113,-0.1117,-0.1113,-0.1164,-0.1164,-0.1164,0,-0.1596,-0.155,-0.1528,-0.1497,-0.1475,-0.1458,-0.1427,-0.1404,-0.1358,-0.1343,-0.1345,-0.1273,-0.1246,-0.1198,-0.119,-0.1174,-0.1164,-0.1171,-0.1135,-0.1132,-0.1129,-0.1116,-0.1112,-0.1164,-0.1164,-0.1164,-0.1164,0,-0.1552,-0.152,-0.1501,-0.1457,-0.1434,-0.1403,-0.1375,-0.1353,-0.1341,-0.132,-0.1278,-0.1246,-0.1205,-0.1193,-0.118,-0.1142,-0.1144,-0.1141,-0.1144,-0.1126,-0.1114,-0.1109,-0.1164,-0.1164,-0.1164,-0.1164,0,0,-0.1535,-0.1481,-0.1474,-0.1454,-0.1412,-0.1386,-0.1354,-0.1316,-0.1297,-0.1266,-0.1237,-0.119,-0.1187,-0.1163,-0.1147,-0.1126,-0.1102,-0.1126,-0.1124,-0.1121,-0.1056,-0.1058,-0.1053,-0.1095,-0.1094,-0.1094,-0.1059,0,-0.1507,-0.145,-0.1429,-0.1382,-0.1352,-0.1336,-0.1307,-0.1278,-0.1258,-0.1228,-0.1205,-0.1171,-0.1171,-0.1156,-0.1135,-0.1109,-0.1088,-0.1112,-0.1067,-0.1065,-0.1075,-0.1047,-0.1048,-0.1017,-0.1054,-0.1054,-0.1053,0,-0.1466,-0.1435,-0.1385,-0.1346,-0.1333,-0.1308,-0.1271,-0.1244,-0.1209,-0.1196,-0.117,-0.1155,-0.112,-0.1126,-0.1076,-0.1093,-0.1073,-0.1058,-0.1056,-0.1049,-0.1057,-0.1038,-0.1007,-0.1002,-0.1046,-0.1046,-0.1047,0,-0.1458,-0.1403,-0.1366,-0.135,-0.1304,-0.1287,-0.1267,-0.1233,-0.1211,-0.1179,-0.1164,-0.1128,-0.1107,-0.1079,-0.1054,-0.1061,-0.1006,-0.101,-0.0992,-0.0992,-0.0979,-0.098,-0.0943,-0.097,-0.097,-0.097,-0.097,0,-0.1427,-0.1397,-0.1362,-0.1339,-0.1304,-0.128,-0.1246,-0.1225,-0.1195,-0.1167,-0.1151,-0.1124,-0.1094,-0.1063,-0.1044,-0.1004,-0.0996,-0.0983,-0.0977,-0.0983,-0.0984,-0.0969,-0.0969,-0.0969,-0.0969,-0.0969,-0.0969,0,-0.1411,-0.1387,-0.1345,-0.1305,-0.1295,-0.1271,-0.1236,-0.1212,-0.1192,-0.1156,-0.1146,-0.1113,-0.1076,-0.1049,-0.1001,-0.0988,-0.0945,-0.0941,-0.0957,-0.0954,-0.0936,-0.0938,-0.0887,-0.0878,-0.0912,-0.0912,-0.0911,0,-0.1392,-0.1369,-0.1327,-0.1307,-0.1288,-0.1256,-0.1234,-0.121,-0.1187,-0.1147,-0.1128,-0.109,-0.1058,-0.0999,-0.097,-0.0933,-0.0926,-0.0911,-0.092,-0.0927,-0.0924,-0.0925,-0.0922,-0.0909,-0.0909,-0.0909,-0.0909,0,-0.1361,-0.1351,-0.132,-0.1285,-0.1259,-0.123,-0.1201,-0.1185,-0.1156,-0.1131,-0.1093,-0.1069,-0.102,-0.0982,-0.0942,-0.092,-0.0908,-0.0906,-0.0899,-0.0904,-0.0914,-0.0907,-0.0951,-0.0907,-0.0907,-0.0907,-0.0907,-0.0907,-0.1342,-0.132,-0.1287,-0.1253,-0.1229,-0.1202,-0.1178,-0.1154,-0.1123,-0.1082,-0.107,-0.103,-0.0996,-0.0942,-0.0919,-0.0887,-0.0887,-0.0878,-0.0876,-0.0873,-0.0873,-0.0921,-0.088,-0.088,-0.088,-0.088,-0.088,0,-0.1309,-0.1287,-0.1257,-0.1216,-0.119,-0.1183,-0.115,-0.1128,-0.1094,-0.1063,-0.1033,-0.0989,-0.0952,-0.0921,-0.0882,-0.0862,-0.0856,-0.0853,-0.0853,-0.0848,-0.0876,-0.0884,-0.0859,-0.0859,-0.0859,-0.0859,-0.0859,-0.0859,-0.1288,-0.125,-0.1236,-0.1185,-0.1163,-0.1126,-0.1107,-0.1082,-0.1057,-0.101,-0.0979,-0.096,-0.0928,-0.0887,-0.0853,-0.0844,-0.083,-0.0828,-0.0818,-0.0844,-0.0846,-0.0848,-0.0856,-0.0825,-0.0825,-0.0792,-0.0792,-0.0792]},{"header":{"parameterUnit":"m.s-1","parameterCategory":1,"la1":30.2991,"la2":30.254,"lo1":-89.0895,"lo2":-89.0444,"dy":0.0017,"dx":0.0017,"nx":28,"ny":28,"refTime":"2025-07-30T21:00:00:Z","depth":0,"parameterNumber":3,"parameterNumberName":"V-component_of_WINDS"},"data":[0,0,0,0,0,0,0,0,0,0,0,0,0,0,0,0,0,0,0,0,0,0,0,0,0,0,0,0,0,0,0,0,0,0,0,0,0,0,0,0,0,0,0,0,0,0,0,0,0,0,0,0,0,0,0,0,0,0,0.1159,0.1159,0,0.1172,0.1172,0.1172,0.12,0.12,0.1201,0.1202,0.1214,0.1214,0.1214,0,0,0,0,0,0,0,0,0,0,0,0,0,0.1158,0.1158,0.1159,0.1159,0.1159,0.1172,0.1172,0.1172,0.12,0.1201,0.1201,0.1202,0.1214,0.1214,0.1214,0,0,0,0,0,0,0,0,0,0,0,0,0,0.1164,0.1158,0.1159,0.1175,0.1176,0.1172,0.1172,0.1172,0.12,0.1201,0.1201,0.1202,0.1215,0.1214,0.1214,0.1195,0,0,0.1213,0.1213,0,0,0,0,0,0,0,0,0.1163,0.1164,0.1172,0.1173,0.1175,0.1185,0.1176,0.118,0.1199,0.1191,0.1202,0.1203,0.1204,0.1205,0.1205,0.1196,0.1196,0.1213,0.1213,0.1213,0.1213,0,0,0,0,0,0,0,0.1163,0.1163,0.1164,0.1172,0.1174,0.1181,0.1183,0.1177,0.1192,0.1192,0.1194,0.1195,0.1205,0.1205,0.1206,0.1196,0.1213,0.1213,0.1213,0.1213,0.1173,0.1172,0,0,0,0,0,0,0.116,0.1163,0.1163,0.1164,0.1171,0.118,0.1182,0.1181,0.1192,0.1195,0.1194,0.1196,0.1205,0.1206,0.1206,0.1185,0.1213,0.1212,0.1212,0.1174,0.1173,0.1172,0,0,0,0,0,0,0.116,0.116,0.1163,0.1164,0.1165,0.1179,0.1178,0.1181,0.1181,0.1194,0.1197,0.1192,0.1206,0.1207,0.1198,0.1186,0.1212,0.1212,0.1175,0.1173,0.1172,0.1142,0,0,0,0,0,0,0.116,0.116,0.1153,0.1164,0.1165,0.1154,0.1177,0.118,0.1181,0.1183,0.1193,0.1195,0.1207,0.1198,0.1197,0.1186,0.1212,0.1176,0.1174,0.1172,0.1144,0.114,0.1136,0,0,0,0,0,0.116,0.1144,0.1152,0.1152,0.1156,0.1153,0.1154,0.1168,0.118,0.1173,0.1181,0.1195,0.1187,0.1197,0.1196,0.1185,0.1177,0.1175,0.1173,0.1146,0.1141,0.1136,0,0,0,0,0,0,0.113,0.1145,0.1155,0.1142,0.1146,0.1158,0.115,0.1162,0.1163,0.1165,0.1182,0.1184,0.1173,0.1178,0.1188,0.1167,0.1184,0.1182,0.1164,0.1159,0.1155,0.1154,0.1212,0,0,0,0,0,0.1122,0.1119,0.1132,0.1119,0.1121,0.1135,0.1134,0.1144,0.115,0.1151,0.1159,0.1164,0.1163,0.1161,0.1161,0.1145,0.1148,0.1137,0.1133,0.113,0.1127,0.112,0.1115,0.1165,0.1165,0.1165,0,0,0.1106,0.1113,0.111,0.1113,0.1118,0.1114,0.1136,0.1131,0.1128,0.1151,0.1143,0.1149,0.1155,0.1143,0.1138,0.1147,0.1114,0.1127,0.1124,0.1124,0.1117,0.1113,0.1108,0.1164,0.1164,0.1164,0,0,0.1073,0.1079,0.1068,0.1073,0.108,0.1089,0.1087,0.1097,0.1102,0.1095,0.1112,0.1109,0.1106,0.111,0.1111,0.1081,0.1094,0.1081,0.106,0.1052,0.1048,0.1045,0.1034,0.103,0.1079,0.1079,0.1079,0,0.1051,0.1046,0.1062,0.1055,0.1056,0.1077,0.1067,0.1071,0.1077,0.1077,0.1087,0.1085,0.109,0.1079,0.1072,0.1073,0.1071,0.1079,0.1048,0.1044,0.1041,0.1031,0.1027,0.1077,0.1077,0.1077,0.1077,0,0.1019,0.1015,0.1006,0.1012,0.1012,0.1004,0.1018,0.1017,0.1027,0.1036,0.1028,0.1036,0.1037,0.1036,0.1046,0.1027,0.1032,0.1044,0.1062,0.1035,0.1025,0.1022,0.1074,0.1075,0.1076,0.1076,0,0,0.0967,0.0982,0.0978,0.0981,0.0991,0.0988,0.0982,0.0983,0.0982,0.0986,0.098,0.0978,0.099,0.0992,0.1003,0.0996,0.0972,0.101,0.101,0.1002,0.0951,0.0941,0.0936,0.0981,0.098,0.0979,0.095,0,0.0936,0.0925,0.0939,0.0925,0.0921,0.0942,0.0936,0.0941,0.0949,0.0948,0.0957,0.0955,0.0971,0.0972,0.0967,0.0976,0.0962,0.0978,0.0976,0.0975,0.0973,0.0931,0.0921,0.0893,0.0947,0.0946,0.0946,0,0.0898,0.09,0.0886,0.0897,0.0896,0.089,0.0894,0.0892,0.0899,0.0905,0.0908,0.0921,0.0915,0.0933,0.0925,0.0936,0.0936,0.0941,0.094,0.0939,0.0958,0.093,0.0884,0.088,0.094,0.0941,0.0941,0,0.0861,0.0861,0.0852,0.0854,0.0867,0.0863,0.0868,0.0875,0.0876,0.0879,0.0879,0.0881,0.0882,0.0884,0.0898,0.0909,0.0888,0.0907,0.0893,0.0893,0.0887,0.0887,0.0841,0.0888,0.0888,0.0888,0.0888,0,0.0824,0.0815,0.0836,0.083,0.082,0.0837,0.0827,0.0834,0.0841,0.0837,0.0855,0.0852,0.087,0.0869,0.088,0.0872,0.0872,0.0877,0.088,0.0875,0.0874,0.0875,0.0877,0.0887,0.0888,0.0888,0.0888,0,0.0781,0.0795,0.0787,0.08,0.0803,0.0795,0.0806,0.0802,0.0812,0.0807,0.0807,0.0822,0.0821,0.0835,0.0837,0.0845,0.0832,0.0839,0.0829,0.0831,0.0817,0.0818,0.0769,0.0763,0.0814,0.0814,0.0813,0,0.0756,0.0749,0.0762,0.0761,0.0765,0.0764,0.0764,0.0781,0.0781,0.0789,0.0784,0.0785,0.0786,0.0784,0.0795,0.0797,0.0803,0.0786,0.0804,0.0799,0.0803,0.0803,0.0802,0.0782,0.0781,0.0781,0.078,0,0.0711,0.0719,0.0719,0.0722,0.0722,0.0725,0.0729,0.0728,0.0746,0.0745,0.0745,0.0746,0.0748,0.0749,0.0753,0.0759,0.0772,0.0775,0.0772,0.0766,0.0761,0.0764,0.0819,0.0776,0.0776,0.0777,0.0777,0.0777,0.0676,0.0671,0.0679,0.0679,0.0684,0.0688,0.0685,0.0694,0.0694,0.0698,0.0708,0.0706,0.0714,0.0721,0.0725,0.0724,0.0732,0.0728,0.0727,0.0725,0.0722,0.0762,0.0725,0.0725,0.0725,0.0725,0.0725,0,0.0632,0.0638,0.0638,0.0644,0.0644,0.0657,0.0663,0.0662,0.066,0.0666,0.0668,0.0667,0.0668,0.068,0.0683,0.0679,0.0686,0.0679,0.0679,0.0681,0.0715,0.0717,0.0674,0.0674,0.0674,0.0674,0.0674,0.0674,0.0608,0.06,0.0609,0.0604,0.0611,0.0609,0.0611,0.0615,0.062,0.0619,0.062,0.0628,0.0636,0.064,0.0641,0.0645,0.0645,0.0636,0.0642,0.0673,0.0678,0.0683,0.0685,0.0636,0.0636,0.0607,0.0607,0.0607]}]]